KDOT RWIS
(Road and Runway Information System) Map and Weather Data
 


 
 

Station
Surface
Air
Wind
Site IDSensor TypeLocationTemperature (°F)Temperature (°F)Humidity (%)Speed (mi/h)Gusts (mi/h)DirectionTime
123002AtmosphericBonner Springs 505724SSWMay 3 2026 2:05AM
123002ApproachBonner Springs54     May 3 2026 2:05AM
123002DeckBonner Springs54     May 3 2026 2:05AM
123014AtmosphericBull Creek 505147SMay 3 2026 2:05AM
123014DeckBull Creek50     May 3 2026 2:05AM
123014DepartureBull Creek52     May 3 2026 2:05AM
123015AtmosphericLeavenworth 5251611WSWMay 3 2026 2:05AM
123015DeckLeavenworth54     May 3 2026 2:05AM
123015DepartureLeavenworthUnavailable     May 3 2026 2:05AM
123020AtmosphericMayetta 504747SMay 3 2026 1:35AM
123020RoadwayMayetta68     May 3 2026 1:35AM
123020DeckMayetta54     May 3 2026 1:35AM
505000AtmosphericKTA 1 506524SMay 3 2026 1:50AM
505000ApproachKTA 157     May 3 2026 1:50AM
505000DeckKTA 157     May 3 2026 1:50AM
505001AtmosphericKTA 2 506112SMay 3 2026 1:50AM
505001ApproachKTA 257     May 3 2026 1:50AM
505001DeckKTA 257     May 3 2026 1:50AM
505002AtmosphericKTA 3 438312SSEMay 3 2026 1:50AM
505002ApproachKTA 352     May 3 2026 1:50AM
505002DeckKTA 357     May 3 2026 1:50AM
505003AtmosphericKTA 4 485746SSEMay 3 2026 1:50AM
505003ApproachKTA 454     May 3 2026 1:50AM
505003DeckKTA 454     May 3 2026 1:50AM
505004AtmosphericKTA 5 5245812SWMay 3 2026 1:50AM
505004RoadwayKTA 554     May 3 2026 1:50AM
505004RoadwayKTA 552     May 3 2026 1:50AM
505005AtmosphericKTA 6 465925SSWMay 3 2026 1:50AM
505005Approach KTA 652     May 3 2026 1:50AM
505005DeckKTA 654     May 3 2026 1:50AM
505006AtmosphericKTA 7 505427SMay 3 2026 1:50AM
505006ApproachKTA 755     May 3 2026 1:50AM
505006DeckKTA 755     May 3 2026 1:50AM
505007AtmosphericKTA 8 504969SSWMay 3 2026 1:50AM
505007ApproachKTA 854     May 3 2026 1:50AM
505007DeckKTA 854     May 3 2026 1:50AM
505008AtmosphericKTA 9 544326SMay 3 2026 1:50AM
505008ApproachKTA 954     May 3 2026 1:50AM
505008DeckKTA 955     May 3 2026 1:50AM
505009AtmosphericKTA 10 399211SMay 3 2026 1:50AM
505009ApproachKTA 1050     May 3 2026 1:50AM
505009DeckKTA 1050     May 3 2026 1:50AM
505010AtmosphericWebb 554157ESEMay 3 2026 2:05AM
505010DeckWebbUnavailable     May 3 2026 2:05AM
505010NullWebb57     May 3 2026 2:05AM
505014AtmosphericI-135 554946SMay 3 2026 2:05AM
505014ApproachI-13561     May 3 2026 2:05AM
505014DeckI-135Unavailable     May 3 2026 2:05AM
540000AtmosphericBlue Rapids 524714ESEMay 3 2026 2:05AM
540000DeckBlue Rapids55     May 3 2026 2:05AM
540000DepartureBlue Rapids57     May 3 2026 2:05AM
540001AtmosphericSabetha 525448SWMay 3 2026 2:05AM
540001ApproachSabetha57     May 3 2026 2:05AM
540001DeckSabetha55     May 3 2026 2:05AM
540002AtmosphericWestgate 5447711SMay 3 2026 2:05AM
540002DeckWestgateUnavailable     May 3 2026 2:05AM
540002DepartureWestgateUnavailable     May 3 2026 2:05AM
540003AtmosphericEmporia 505757SSWMay 3 2026 2:05AM
540003ApproachEmporia55     May 3 2026 2:05AM
540003DeckEmporia46     May 3 2026 2:05AM
540005AtmosphericLawrence 524839ESEMay 3 2026 2:05AM
540005ApproachLawrence52     May 3 2026 2:05AM
540005DeckLawrence52     May 3 2026 2:05AM
540006AtmosphericTroy 525767SSWMay 3 2026 2:05AM
540006DeckTroy55     May 3 2026 2:05AM
540006DepartureTroy57     May 3 2026 2:05AM
540007AtmosphericManhattan 554612WMay 3 2026 2:05AM
540007DepartureManhattan57     May 3 2026 2:05AM
540007DeckManhattan57     May 3 2026 2:05AM
541000AtmosphericElkhart 466456SSWMay 3 2026 2:05AM
541000ApproachElkhart57     May 3 2026 2:05AM
541000DeckElkhart54     May 3 2026 2:05AM
541001AtmosphericSyracuse 484712EMay 3 2026 2:05AM
541001Out of Service for WinterSyracuse61     May 3 2026 2:05AM
541001DeckSyracuse57     May 3 2026 2:05AM
541003AtmosphericFord 544447SSWMay 3 2026 2:05AM
541003DeckFord59     May 3 2026 2:05AM
541003DepartureFord59     May 3 2026 2:05AM
541004AtmosphericScott 55421416SSWMay 3 2026 2:05AM
541004DepartureScottUnavailable     May 3 2026 2:05AM
541005AtmosphericNess 5452912SSWMay 3 2026 2:05AM
541005DeckNess59     May 3 2026 2:05AM
541005DepartureNess59     May 3 2026 2:05AM
541007AtmosphericGarden City 525647SSEMay 3 2026 2:05AM
541007ApproachGarden City57     May 3 2026 2:05AM
543000AtmosphericJunction City 544558SWMay 3 2026 2:05AM
543000ApproachJunction City57     May 3 2026 2:05AM
543000DeckJunction City55     May 3 2026 2:05AM
543001AtmosphericEllsworth 54511319SSWMay 3 2026 2:05AM
543001RoadwayEllsworth55     May 3 2026 2:05AM
543002AtmosphericMcPherson 465677SMay 3 2026 2:05AM
543002ApproachMcPherson55     May 3 2026 2:05AM
543002DeckMcPherson54     May 3 2026 2:05AM
543003AtmosphericSalina 5554911SMay 3 2026 2:05AM
543003DepartureSalina68     May 3 2026 2:05AM
543003RoadwaySalina57     May 3 2026 2:05AM
543004AtmosphericConcordia 505669SMay 3 2026 2:05AM
543004ApproachConcordia55     May 3 2026 2:05AM
543004DeckConcordia54     May 3 2026 2:05AM
543005AtmosphericPeabody 505336SMay 3 2026 2:05AM
543005ApproachPeabody57     May 3 2026 2:05AM
543005DeckPeabody57     May 3 2026 2:05AM
560000AtmosphericEdson 483679SSWMay 3 2026 2:05AM
560000RoadwayEdson54     May 3 2026 2:05AM
560000RoadwayEdson54     May 3 2026 2:05AM
560001AtmosphericOakley 524969SSWMay 3 2026 2:05AM
560001ApproachOakleyUnavailable     May 3 2026 2:05AM
560001DeckOakley54     May 3 2026 2:05AM
560002AtmosphericAtwood 455426SSWMay 3 2026 2:05AM
560002ApproachAtwood57     May 3 2026 2:05AM
560002DeckAtwood55     May 3 2026 2:05AM
560003AtmosphericJennings 524636SWMay 3 2026 2:05AM
560003ApproachJennings57     May 3 2026 2:05AM
560003DeckJennings55     May 3 2026 2:05AM
560004AtmosphericWakeeney 525645SWMay 3 2026 2:05AM
560004ApproachWakeeney55     May 3 2026 2:05AM
560004DeckWakeeney54     May 3 2026 2:05AM
560006AtmosphericBow Creek(Stockton) 544669SSWMay 3 2026 2:05AM
560006ApproachBow Creek(Stockton)57     May 3 2026 2:05AM
560006DeckBow Creek(Stockton)57     May 3 2026 2:05AM
560007AtmosphericLebanon 453924SSEMay 3 2026 2:05AM
560007ApproachLebanon55     May 3 2026 2:05AM
560007DeckLebanon54     May 3 2026 2:05AM
560008AtmosphericWallace 5530812SSWMay 3 2026 2:05AM
560008ApproachWallace59     May 3 2026 2:05AM
560008DeckWallace55     May 3 2026 2:05AM
572000AtmosphericGreat Bend 545757SWMay 3 2026 2:05AM
572000ApproachGreat Bend59     May 3 2026 2:05AM
572000DeckGreat Bend57     May 3 2026 2:05AM
572001AtmosphericPratt 526216SSWMay 3 2026 2:05AM
572001ApproachPratt59     May 3 2026 2:05AM
572001DeckPratt59     May 3 2026 2:05AM
572002AtmosphericAnthony 546326SMay 3 2026 2:05AM
572002ApproachAnthony63     May 3 2026 2:05AM
572002DeckAnthony59     May 3 2026 2:05AM
573000AtmosphericEureka 525336SWMay 3 2026 2:05AM
573001AtmosphericGarnett 466224SMay 3 2026 2:05AM
573001ApproachGarnett54     May 3 2026 2:05AM
573001DeckGarnettUnavailable     May 3 2026 2:05AM
573003AtmosphericChetopa 439501SMay 3 2026 2:05AM
573003DeckChetopa50     May 3 2026 2:05AM
573003DepartureChetopa54     May 3 2026 2:05AM
573004AtmosphericChanute 466812SSEMay 3 2026 2:05AM
573004ApproachChanute64     May 3 2026 2:05AM
573004DeckChanute55     May 3 2026 2:05AM